Marietta, GA

9:10 AM EST on December 18, 2017 (GMT -0500)
Dobbins Air Force Base

Weather History for KMGE - July, 2013

Change the Weather History Date:

Saturday, July 13, 2013

  Actual Average Record
Temperature  
Mean Temperature 73 °F -  
Max Temperature 78 °F 85 °F 95 °F (2011)
Min Temperature 68 °F 68 °F 62 °F (1999)
Cooling Degree Days 8    
Growing Degree Days 23 (Base 50)    
Moisture  
Dew Point 69 °F    
Average Humidity 90    
Maximum Humidity 100    
Minimum Humidity 77    
Precipitation  
Precipitation 0.00 in - - ()
Sea Level Pressure  
Sea Level Pressure 30.04 in    
Wind  
Wind Speed 8 mph (ENE)    
Max Wind Speed 15 mph    
Max Gust Speed -    
Visibility 9 miles    
Events      
Averages and records for this station are not official NWS values.
T = Trace of Precipitation, MM = Missing Value Source: NWS Daily Summary

Daily Weather History Graph

Daily Weather History Graph

Search for Another Location

Airport or City:

Trip Planner

Search our weather history database for the weather conditions in past years. The results will help you decide how hot, cold, wet, or windy it might be!

Date:

Astronomy

Jul. 13, 2013 Rise Set
Actual Time 6:37 AM EDT 8:50 PM EDT
Civil Twilight 6:08 AM EDT 9:18 PM EDT
Nautical Twilight 5:33 AM EDT 9:53 PM EDT
Astronomical Twilight 4:55 AM EDT 10:31 PM EDT
Moon 11:35 AM EDT (7/13) 11:49 PM EDT (7/13)
Length of Visible Light 15h 10m
Length of Day
14h 13m
Waxing Crescent, 25% of the Moon is Illuminated
Jul 13
Waxing Crescent
Jul 15
First Quarter
Jul 22
Full
Jul 29
Last Quarter
Aug 6
New

Hourly Weather History & Observations

Time (EDT) Temp. Dew Point Humidity Pressure Visibility Wind Dir Wind Speed Gust Speed Precip Events Conditions
12:58 AM 70.9 °F 66.7 °F 87% 29.97 in 10.0 mi East 6.9 mph - N/A   Clear
1:58 AM 70.0 °F 66.9 °F 90% 29.96 in 10.0 mi ENE 5.8 mph - N/A   Clear
2:34 AM 69.8 °F 66.2 °F 88% 29.99 in 10.0 mi East 4.6 mph - N/A   Partly Cloudy
2:54 AM 69.8 °F 68.0 °F 94% 29.99 in 10.0 mi ENE 6.9 mph - N/A   Mostly Cloudy
2:58 AM 69.4 °F 67.5 °F 93% 29.96 in 10.0 mi ENE 5.8 mph - N/A   Mostly Cloudy
3:33 AM 69.8 °F 68.0 °F 94% 29.99 in 10.0 mi NE 6.9 mph - N/A   Mostly Cloudy
3:38 AM 69.8 °F 68.0 °F 94% 29.98 in 10.0 mi NE 6.9 mph - N/A   Mostly Cloudy
3:48 AM 69.8 °F 68.0 °F 94% 29.98 in 10.0 mi ENE 5.8 mph - N/A   Mostly Cloudy
3:58 AM 69.1 °F 67.6 °F 95% 29.95 in 10.0 mi East 5.8 mph - N/A   Overcast
4:03 AM 69.8 °F 68.0 °F 94% 29.98 in 10.0 mi ENE 6.9 mph - N/A   Overcast
4:33 AM 68.0 °F 68.0 °F 100% 29.97 in 10.0 mi ENE 3.5 mph - N/A   Scattered Clouds
4:58 AM 68.5 °F 67.5 °F 96% 29.96 in 10.0 mi NE 4.6 mph - N/A   Clear
5:35 AM 68.0 °F 68.0 °F 100% 29.98 in 10.0 mi East 5.8 mph - N/A   Partly Cloudy
5:45 AM 68.0 °F 68.0 °F 100% 29.98 in 10.0 mi ENE 5.8 mph - N/A   Mostly Cloudy
5:58 AM 68.4 °F 67.5 °F 97% 29.97 in 10.0 mi East 8.1 mph - N/A   Mostly Cloudy
6:13 AM 68.0 °F 68.0 °F 100% 29.99 in 10.0 mi ENE 8.1 mph - N/A   Overcast
6:58 AM 69.4 °F 68.0 °F 95% 29.99 in 10.0 mi ENE 8.1 mph - N/A   Overcast
7:58 AM 70.3 °F 68.9 °F 95% 30.01 in 5.0 mi East 8.1 mph - N/A   Overcast
8:58 AM 70.9 °F 69.4 °F 95% 30.03 in 5.0 mi East 8.1 mph - N/A   Overcast
9:28 AM 71.6 °F 69.8 °F 94% 30.05 in 5.0 mi East 11.5 mph - N/A   Overcast
9:58 AM 71.2 °F 69.3 °F 93% 30.04 in 7.0 mi NE 11.5 mph - N/A   Overcast
10:43 AM 71.6 °F 69.8 °F 94% 30.06 in 7.0 mi ENE 9.2 mph - N/A   Overcast
10:48 AM 71.6 °F 69.8 °F 94% 30.06 in 7.0 mi East 12.7 mph - N/A   Overcast
10:58 AM 72.5 °F 69.3 °F 90% 30.04 in 7.0 mi East 12.7 mph - N/A   Overcast
11:08 AM 73.4 °F 69.8 °F 88% 30.06 in 7.0 mi East 9.2 mph - N/A   Overcast
11:23 AM 73.4 °F 69.8 °F 88% 30.06 in 7.0 mi East 11.5 mph - N/A   Overcast
11:58 AM 73.6 °F 69.8 °F 88% 30.06 in 7.0 mi ENE 11.5 mph - N/A   Overcast
12:18 PM 73.4 °F 69.8 °F 88% 30.08 in 7.0 mi East 6.9 mph - N/A   Overcast
12:28 PM 73.4 °F 69.8 °F 88% 30.08 in 7.0 mi ENE 13.8 mph - N/A   Overcast
12:53 PM 71.6 °F 69.8 °F 94% 30.08 in 7.0 mi East 11.5 mph - N/A   Overcast
12:58 PM 72.1 °F 69.8 °F 92% 30.06 in 7.0 mi East 8.1 mph - N/A   Overcast
1:23 PM 73.4 °F 69.8 °F 88% 30.08 in 7.0 mi East 6.9 mph - N/A   Overcast
1:33 PM 73.4 °F 69.8 °F 88% 30.08 in 7.0 mi East 11.5 mph - N/A   Overcast
1:53 PM 73.4 °F 69.8 °F 88% 30.07 in 7.0 mi East 15.0 mph - N/A   Overcast
1:58 PM 72.7 °F 69.6 °F 90% 30.05 in 7.0 mi East 10.4 mph - N/A   Overcast
2:33 PM 73.4 °F 69.8 °F 88% 30.07 in 10.0 mi ENE 9.2 mph - N/A   Overcast
2:58 PM 74.7 °F 70.5 °F 87% 30.05 in 10.0 mi East 5.8 mph - N/A   Overcast
3:08 PM 75.2 °F 71.6 °F 89% 30.06 in 10.0 mi ENE 9.2 mph - N/A   Overcast
3:18 PM 77.0 °F 71.6 °F 83% 30.06 in 10.0 mi East 9.2 mph - N/A   Mostly Cloudy
3:58 PM 78.1 °F 70.5 °F 77% 30.03 in 10.0 mi East 12.7 mph - N/A   Mostly Cloudy
4:03 PM 78.8 °F 71.6 °F 78% 30.05 in 10.0 mi East 9.2 mph - N/A   Scattered Clouds
4:58 PM 77.2 °F 70.5 °F 80% 30.02 in 10.0 mi East 9.2 mph - N/A   Overcast
5:58 PM 77.0 °F 70.7 °F 81% 30.02 in 10.0 mi East 11.5 mph - N/A   Scattered Clouds
6:58 PM 76.1 °F 71.1 °F 84% 30.03 in 10.0 mi East 6.9 mph - N/A   Overcast
7:04 PM 75.2 °F 71.6 °F 89% 30.05 in 10.0 mi ENE 8.1 mph - N/A   Overcast
7:15 PM 75.2 °F 69.8 °F 83% 30.05 in 10.0 mi East 10.4 mph - N/A   Overcast
7:31 PM 75.2 °F 69.8 °F 83% 30.05 in 10.0 mi East 10.4 mph - N/A   Overcast
7:58 PM 74.8 °F 70.5 °F 86% 30.03 in 10.0 mi East 11.5 mph - N/A   Overcast
8:27 PM 75.2 °F 69.8 °F 83% 30.06 in 10.0 mi East 6.9 mph - N/A   Overcast
8:58 PM 74.3 °F 70.5 °F 88% 30.06 in 10.0 mi ENE 4.6 mph - N/A   Overcast
9:23 PM 73.4 °F 69.8 °F 88% 30.07 in 10.0 mi ENE 5.8 mph - N/A   Overcast
9:28 PM 73.4 °F 69.8 °F 88% 30.07 in 10.0 mi ENE 8.1 mph - N/A   Overcast
9:43 PM 73.4 °F 69.8 °F 88% 30.07 in 10.0 mi East 8.1 mph - N/A   Overcast
9:58 PM 73.4 °F 70.3 °F 90% 30.05 in 10.0 mi East 8.1 mph - N/A   Mostly Cloudy
10:13 PM 73.4 °F 69.8 °F 88% 30.08 in 10.0 mi East 6.9 mph - N/A   Overcast
10:55 PM 73.4 °F 69.8 °F 88% 30.07 in 10.0 mi East 6.9 mph - N/A   Overcast
11:08 PM 73.4 °F 69.8 °F 88% 30.09 in 10.0 mi East 8.1 mph - N/A   Mostly Cloudy
11:18 PM 73.4 °F 69.8 °F 88% 30.09 in 10.0 mi East 6.9 mph - N/A   Mostly Cloudy
11:23 PM 73.4 °F 69.8 °F 88% 30.09 in 10.0 mi East 6.9 mph - N/A   Mostly Cloudy
11:33 PM 73.4 °F 69.8 °F 88% 30.10 in 10.0 mi ENE 5.8 mph - N/A   Overcast
11:55 PM 73.4 °F 69.8 °F 88% 30.10 in 10.0 mi NE 5.8 mph - N/A   Overcast
11:59 PM 72.7 °F 70.0 °F 91% 30.08 in 10.0 mi ENE 5.8 mph - N/A   Overcast